Dewpoint
-4 -5 -8 -8 -9 -12 -5 -3 -1 -6 -6 -1 -6 -7 -10 -12 -12 -10 -11 -11 -11 -11 -11 -10 -10 -11 -12 -14 -13 -12 -4 4 4 -0 -5 -4 -4 -3 0 5 3 4 5 6
-4 -4 -7 -7 -10 -4 -3 -4 -6 -17 -1 2 -5 -9 -11 -10 -10 -9 -9 -9 -10 -9 -8 -8 -10 -10 -11 -11 -12 -7 -4 0 2 -1 -4 -6 -2 -2 2 4 5 6 7 6
-4 -5 -6 -8 -11 -7 -3 -4 -0 -6 -6 -7 -5 -7 -8 -8 -8 -8 -8 -8 -8 -7 -7 -9 -9 -9 -10 -8 -7 -3 -3 -3 -0 3 1 1 4 4 2 1 7 4 4 4
-4 -5 -9 -10 -11 -7 -2 -3 -0 -4 -1 -6 -7 -7 -9 -8 -7 -8 -9 -5 -5 -5 -6 -8 -8 -9 -8 -9 -9 -8 -5 -2 -4 -2 -3 -3 0 5 2 3 6 4 1 -2
-6 -5 -11 -11 -11 -4 -1 -7 -3 -6 -6 -7 -7 -7 -9 -10 -9 -11 -7 -6 -8 -9 -8 -9 -5 -7 -7 -6 -8 -6 -1 -0 -4 -3 -4 -4 0 -1 2 3 6 5 4 -1
-10 -8 -13 -11 -10 -2 -3 -4 -4 -3 -7 -7 -8 -7 -9 -10 -10 -10 -11 -11 -9 -9 -9 -10 -8 -8 -8 -7 -6 -3 -2 1 1 -1 -5 -2 3 -2 -3 -1 2 -1 2 5
-10 -11 -10 -10 -5 -3 -1 -4 -5 -5 -4 -9 -10 -10 -11 -11 -11 -10 -10 -11 -9 -10 -8 -8 -8 -8 -8 -8 -7 -6 -2 -1 -0 1 -0 2 -3 -6 -6 -5 2 3 1 3
-7 -9 -9 -8 -8 -4 -2 -6 -4 -6 -2 -11 -11 -11 -11 -11 -12 -10 -10 -11 -10 -8 -7 -4 -5 -5 -7 -7 -6 -6 -5 -2 2 2 2 2 -4 -5 -4 -3 5 1 1 0
-6 -9 -9 -7 -8 -5 -3 -3 -4 -5 -1 -10 -11 -12 -11 -9 -9 -8 -9 -9 -7 -7 -3 -2 -2 -2 -4 -3 1 -7 -7 -4 1 0 3 5 6 0 -4 -5 6 1 -0 0
-6 -9 -9 -8 -7 -7 -3 -2 -4 -4 -1 -8 -9 -5 -3 -8 -7 -7 -7 -7 -8 -5 -2 -1 1 -1 -4 -1 -1 -5 -3 -0 1 2 3 5 1 -0 -4 -1 4 0 -1 -2
-5 -8 -9 -9 -9 -10 -4 -2 -3 -3 -4 -5 -7 -7 -8 -7 -7 -5 -6 -6 -3 -5 -2 -0 -2 -0 -0 2 -2 -4 -2 0 1 1 5 4 -1 -1 2 2 1 -1 -2 -3
-5 -3 -7 -9 -12 -10 -4 -2 -4 -4 -4 -3 -4 -4 -4 -5 -6 -6 -7 -6 -6 -3 -1 -3 -2 -1 2 2 2 -1 3 2 4 2 2 1 -1 -1 -1 -1 -1 -1 -2 -3
-4 -4 -9 -9 -8 -5 -5 -2 -2 -3 -3 -3 -4 -5 -4 -4 -4 -5 -6 -5 -3 -3 -2 -1 -2 -0 -0 2 2 2 -0 -2 3 3 -0 -2 -1 -2 -2 -2 -2 -2 -3 -4
-4 -8 -8 -6 -6 -6 -5 -3 -3 -3 -3 -3 -3 -5 -6 -5 -5 -4 -4 -5 -4 -5 -6 -4 -3 -2 -2 0 0 2 -1 -2 -0 1 0 -1 -3 -3 -2 -3 -3 -4 -4 -4
-7 -7 -5 -7 -8 -9 -8 -3 -3 -4 -3 -1 -3 -3 -6 -6 -5 -4 -5 -5 -5 -6 -5 -4 -3 -6 0 -1 0 -1 -2 -1 -1 0 -1 -2 -3 -3 -3 -4 -3 -3 -4 -5
-6 -4 -6 -9 -12 -10 -3 -4 -5 -4 -3 -2 -2 -4 -4 -5 -5 -5 -5 -5 -4 -4 -4 -4 -5 -5 -0 -2 1 -1 -3 -2 -3 -2 -3 -4 -4 -4 -4 -4 -5 -5 -5 -6
-5 -5 -8 -8 -9 -7 -4 -2 -2 -2 -2 -4 -3 -5 -5 -5 -5 -4 -3 -4 -4 -4 -4 -5 -5 -5 -3 -1 1 -3 -3 -3 -3 -3 -3 -3 -4 -4 -5 -5 -5 -6 -7 -7
-4 -6 -8 -9 -10 -7 -3 -4 -3 -3 -3 -3 -2 -4 -4 -3 -5 -4 -1 -3 -4 -3 -4 -4 -4 -5 -4 -0 -3 -4 -3 -3 -4 -3 -3 -4 -4 -5 -6 -6 -7 -8 -8 -8
-6 -8 -12 -9 -6 -3 -4 -5 -4 -3 -3 -2 -4 -3 -2 -2 -4 -4 -3 -3 -2 -4 -1 -3 -5 -2 -1 -2 -3 -4 -4 -4 -4 -4 -4 -4 -5 -7 -7 -8 -8 -8 -8 -8
-12 -12 -6 -4 -4 -5 -4 -3 -3 -3 -3 -3 -2 -5 -3 -4 -3 -3 -3 -3 -3 -2 -3 -4 -2 -1 -4 -5 -5 -5 -5 -4 -4 -3 -3 -4 -6 -7 -7 -8 -8 -8 -8 -9
-7 -6 -3 -3 -3 -3 -3 -2 -2 -4 -2 -4 -5 -6 -4 -4 -2 -2 -5 -2 -2 -1 -1 -2 -1 -1 -5 -6 -6 -6 -6 -6 -6 -6 -6 -6 -6 -7 -8 -9 -9 -10 -10 -11
-8 -3 -3 -3 -3 -2 -2 -3 -5 -3 -6 -7 -5 -5 -6 -4 -4 -2 -2 -3 -3 -3 -1 -2 -1 -4 -6 -7 -7 -7 -7 -7 -7 -8 -8 -8 -8 -8 -9 -10 -11 -11 -11 -11
-5 -3 -3 -2 -3 -2 -4 -4 -5 -5 -7 -4 -5 -1 -5 -4 -4 -2 -1 -1 -1 0 1 1 -2 -6 -7 -7 -8 -8 -8 -8 -9 -9 -10 -10 -10 -10 -11 -12 -12 -12 -12 -12
-3 -2 -2 -2 -3 -4 -4 -3 -1 -1 -2 -3 -2 -3 -3 -2 -0 -1 -1 1 1 2 0 1 -5 -6 -6 -7 -8 -8 -9 -10 -10 -11 -12 -12 -11 -11 -12 -12 -12 -12 -13 -14
-2 -3 -2 -3 -2 -2 -2 -2 -2 -2 -1 -1 -1 -1 -1 -1 -1 -0 -0 1 0 1 0 -3 -5 -6 -8 -9 -10 -10 -11 -11 -11 -12 -12 -12 -12 -12 -12 -12 -13 -17 -22 -24
-3 -3 -3 -3 -3 -3 -3 -2 -1 -2 -2 -2 -1 0 0 1 -1 1 -0 -0 0 -1 -4 -6 -7 -8 -9 -10 -10 -11 -11 -11 -12 -12 -12 -12 -13 -12 -16 -20 -21 -22 -22 -22
-3 -3 -4 -3 -2 -2 -2 -3 -2 -3 -1 0 0 2 2 -0 -1 -1 -2 -0 -3 -5 -6 -7 -8 -9 -10 -11 -11 -11 -11 -11 -11 -12 -12 -12 -17 -17 -13 -12 -16 -14 -17 -18
Wind_Speed
5 2 3 7 5 6 7 2 2 2 4 4 4 2 3 2 3 1 1 3 3 4 6 9 10 13 12 20 23 15 8 4 13 20 20 21 20 15 16 8 7 6 9 3
6 5 6 7 7 7 4 4 4 1 2 2 4 3 4 2 1 2 1 2 1 7 6 5 6 10 11 15 15 11 1 5 8 15 16 16 8 11 20 18 3 9 5 4
6 5 5 7 7 8 1 2 1 3 4 1 3 4 4 5 2 2 2 4 3 4 5 9 8 15 6 9 16 3 7 9 11 14 10 14 14 17 17 12 6 5 7 9
5 4 6 7 9 10 3 2 3 1 2 3 5 4 2 3 1 4 7 2 4 6 7 11 14 12 13 14 16 13 11 16 17 21 24 16 16 22 10 17 15 8 9 9
5 4 7 8 10 8 4 1 4 3 6 6 5 2 5 3 5 2 4 2 9 11 10 13 15 14 14 16 13 11 10 12 17 20 20 19 25 20 6 9 10 7 19 3
1 7 8 9 10 6 1 1 4 5 8 5 5 6 4 2 1 5 9 8 9 11 14 20 22 23 26 22 19 16 11 4 8 14 14 14 12 18 10 11 19 10 3 8
4 7 9 11 10 7 3 1 1 2 2 6 5 3 0 4 5 6 10 10 9 13 17 23 25 29 29 26 21 19 15 11 7 7 9 7 12 12 13 6 17 12 10 14
9 9 10 11 11 6 8 2 5 2 3 3 5 3 5 7 7 9 11 10 10 14 19 10 10 9 14 16 17 16 16 10 5 4 5 15 17 7 8 6 9 16 16 16
12 12 12 10 10 8 7 3 3 3 3 2 5 1 3 6 4 3 7 3 5 13 4 5 7 10 15 5 8 16 15 10 3 3 2 4 7 17 5 3 6 14 15 12
14 12 11 9 8 9 6 3 2 2 2 3 2 4 3 4 3 5 5 11 10 3 3 6 6 5 11 3 4 13 8 4 9 9 6 3 17 18 8 1 5 14 13 11
15 13 11 8 7 8 6 3 2 2 1 2 1 2 2 2 5 4 8 6 7 5 4 4 4 3 4 7 1 9 7 6 5 7 6 5 29 13 7 6 15 12 13 12
15 14 11 8 8 10 9 3 3 3 2 4 7 6 8 8 8 8 6 6 6 6 4 5 3 6 4 8 3 7 2 4 3 6 3 8 17 15 12 12 13 13 13 12
14 13 10 9 9 10 8 3 3 1 4 8 5 6 5 7 8 7 6 3 6 5 3 4 3 5 5 5 3 6 10 17 4 3 8 12 16 15 15 15 15 13 12 12
14 13 13 10 8 8 8 3 2 1 3 3 1 1 6 5 6 8 8 9 10 9 10 7 3 4 8 5 7 3 7 8 9 4 5 7 16 15 12 13 13 14 13 13
15 13 12 10 9 9 9 7 8 6 4 5 8 10 8 8 4 4 6 6 6 7 6 3 6 8 5 6 2 5 8 5 4 3 10 5 9 10 11 14 14 12 12 14
16 14 12 9 8 9 5 3 7 10 6 3 3 4 7 9 8 8 7 6 4 2 3 6 6 12 5 3 3 6 9 9 9 4 9 12 10 12 13 12 10 11 12 12
16 12 10 10 10 10 6 1 4 8 13 2 5 4 3 9 8 9 8 8 4 4 5 7 15 15 4 2 2 7 8 8 5 5 6 9 11 7 8 9 11 11 12 12
15 12 10 9 10 12 12 13 5 4 4 3 3 4 3 7 6 7 7 6 5 6 6 9 8 8 3 1 5 5 5 7 10 10 9 11 9 7 5 7 7 8 10 10
13 10 9 9 9 7 11 11 12 14 9 4 5 3 2 4 6 4 6 6 4 7 4 4 3 2 1 6 7 4 5 5 4 7 8 7 7 6 8 7 7 9 10 9
13 16 7 5 7 13 6 3 6 7 7 6 5 8 4 5 4 4 3 6 4 3 5 3 2 2 7 6 6 6 6 4 4 3 4 4 5 7 9 10 10 10 10 9
15 7 4 6 15 10 7 5 6 8 5 7 9 15 7 6 4 4 5 2 2 3 4 4 4 3 5 6 6 7 7 7 8 6 5 8 9 9 9 9 9 8 7 5
16 5 12 19 5 5 4 4 3 4 4 6 9 8 11 4 6 2 3 3 2 3 2 2 2 4 10 8 7 7 7 8 9 8 9 9 10 8 8 6 4 4 7 7
12 6 6 5 5 4 4 7 4 4 5 2 3 1 3 3 2 2 2 2 4 4 3 2 3 12 10 8 8 7 7 7 7 7 7 7 9 7 6 9 9 8 9 9
6 6 6 4 5 4 4 5 2 3 3 8 9 4 2 2 2 1 3 2 3 2 3 3 5 12 11 10 8 8 6 6 6 7 7 9 9 10 10 10 9 8 8 7
4 5 4 6 1 3 4 4 4 3 4 8 5 2 4 3 2 3 3 3 4 2 3 3 14 13 10 7 6 7 8 8 9 9 11 12 12 11 10 9 8 6 6 5
3 2 0 1 2 3 2 4 5 4 5 6 2 2 3 4 2 4 4 3 3 3 4 12 12 11 11 10 10 11 11 11 11 11 11 11 9 7 8 6 5 4 3 3
2 2 4 1 1 4 6 5 5 8 4 2 3 4 1 2 2 3 2 2 3 10 10 10 11 11 12 13 14 13 13 12 11 11 8 7 8 7 9 6 5 5 5 5
Wind_Direction
206 201 183 192 182 137 122 275 235 270 206 222 199 214 32 14 66 74 39 298 295 286 329 304 301 295 293 318 317 303 358 303 286 271 267 206 248 235 229 228 250 284 283 294
185 167 162 168 158 138 141 257 85 177 80 200 184 97 111 28 133 38 20 293 336 339 312 311 313 316 328 327 310 323 335 278 293 270 261 251 223 240 233 216 266 233 273 289
177 177 183 180 159 154 115 324 166 166 221 7 55 150 154 136 62 53 324 322 289 317 336 308 322 308 322 320 296 14 333 261 258 276 294 312 298 296 294 298 212 255 257 334
189 177 185 183 152 151 56 56 269 353 170 141 110 152 233 159 251 198 245 79 244 264 297 313 296 322 324 318 310 286 216 262 271 270 288 290 276 279 289 303 282 228 260 254
203 188 180 165 140 129 43 65 296 211 113 98 161 85 221 246 134 267 108 264 286 289 298 295 312 311 300 306 299 304 344 271 265 269 277 281 306 249 221 302 298 351 254 174
165 188 172 151 145 117 54 277 299 295 121 170 211 180 195 243 311 274 264 281 313 313 302 302 306 298 288 275 278 281 275 275 310 264 279 299 283 247 239 218 214 239 7 57
143 165 165 148 145 110 31 277 352 353 196 228 182 108 211 253 269 297 309 307 290 295 319 309 292 273 267 260 254 245 250 255 276 290 303 266 266 193 206 200 49 37 73 66
175 175 175 160 161 129 78 84 353 352 280 204 132 204 256 275 271 238 250 281 313 327 310 302 300 291 281 271 266 226 234 225 268 276 284 286 187 112 143 150 46 23 20 29
187 184 177 169 160 140 74 48 41 356 333 65 40 119 239 277 321 274 288 297 319 295 305 289 283 304 310 288 305 200 202 210 203 293 278 273 13 341 25 103 85 27 19 15
187 182 181 178 167 163 107 43 115 30 19 75 161 14 39 14 334 296 351 339 314 8 297 287 281 297 325 273 263 174 159 172 217 249 250 241 346 330 296 31 39 38 36 28
189 188 189 193 192 181 150 121 149 53 264 338 358 318 302 276 258 320 329 327 10 329 310 318 10 308 316 290 226 164 180 216 212 219 238 82 355 17 58 349 50 45 58 71
197 191 187 200 194 178 173 121 150 216 274 271 314 273 258 264 286 312 316 307 328 21 329 3 326 290 262 2 16 5 67 352 4 36 45 34 47 60 48 51 57 50 72 80
200 184 187 180 168 172 171 152 144 49 329 324 256 263 235 251 249 240 268 10 40 22 5 309 300 298 326 349 26 351 355 18 36 200 37 51 42 53 51 59 67 68 75 90
182 179 180 187 191 181 187 236 214 211 314 277 310 264 254 243 231 233 245 263 288 306 310 292 275 293 328 319 322 57 355 356 335 91 84 100 47 47 56 63 69 79 86 91
182 185 194 193 206 205 206 227 225 198 306 335 306 296 232 244 242 232 231 256 272 301 302 288 289 287 322 308 27 44 8 7 6 22 359 81 46 49 60 68 66 72 79 79
180 178 185 185 191 189 198 280 244 223 218 290 301 307 243 232 242 235 237 219 214 221 284 264 262 286 293 299 44 63 36 42 25 51 60 92 94 71 63 67 67 74 81 81
183 186 180 180 192 188 191 172 90 185 203 261 277 262 225 236 232 243 238 209 196 227 257 248 257 279 280 277 38 87 60 59 62 17 6 92 50 85 75 81 81 76 75 75
182 181 182 195 195 203 225 236 234 115 174 216 266 267 252 196 206 218 185 172 198 228 240 264 261 279 259 84 120 98 92 76 60 59 69 88 80 75 79 74 84 80 77 77
176 185 180 175 203 215 232 234 252 257 231 238 230 249 284 179 232 204 185 183 220 235 211 242 264 235 223 79 111 82 53 79 69 66 72 74 76 70 59 61 67 86 87 85
164 159 169 205 208 210 200 201 193 204 214 229 248 240 271 182 197 198 221 191 233 232 215 199 207 81 113 103 103 92 73 89 47 227 95 58 89 82 67 64 68 84 92 95
166 171 221 176 157 162 181 181 197 194 218 219 238 230 225 196 189 219 223 218 254 253 167 214 198 142 129 135 109 89 77 74 65 73 76 75 88 103 107 88 88 105 121 128
179 176 140 149 193 200 183 190 213 215 230 189 181 222 203 198 199 239 253 239 224 253 114 219 209 109 130 134 112 88 77 77 77 84 88 90 88 102 111 120 130 124 122 117
185 175 168 204 175 189 216 178 202 214 193 192 147 132 175 203 209 231 289 262 240 143 215 160 60 131 137 135 126 101 90 90 97 104 118 128 131 127 112 116 112 113 108 102
196 182 178 244 163 232 196 268 191 61 121 156 150 149 188 195 186 256 246 258 260 246 229 94 129 135 121 111 118 129 113 126 119 118 115 110 115 118 111 106 105 98 94 86
242 202 201 204 140 64 63 94 98 107 151 142 126 210 184 188 223 214 285 239 238 355 57 81 123 127 132 140 160 150 135 127 113 113 112 108 106 107 108 104 99 91 81 73
277 333 181 52 199 165 204 188 142 160 164 155 209 220 194 209 218 189 228 267 5 70 90 118 129 138 149 150 145 133 131 135 129 121 115 110 112 111 94 88 80 71 59 41
219 182 219 271 345 141 159 163 145 182 176 217 213 207 178 106 214 228 9 12 73 121 124 131 144 145 149 147 142 140 132 129 125 118 121 118 101 82 56 24 29 17 353 352
Height
1436 1437 1438 1440 1445 1444 1447 1449 1445 1448 1448 1448 1442 1438 1442 1450 1448 1450 1449 1452 1449 1447 1446 1445 1442 1439 1436 1435 1433 1433 1434 1441 1426 1403 1388 1387 1388 1388 1393 1409 1404 1397 1395 1395
1436 1438 1439 1441 1444 1445 1446 1447 1446 1449 1447 1445 1438 1445 1447 1448 1448 1450 1450 1450 1450 1449 1449 1449 1440 1439 1439 1440 1439 1438 1437 1433 1426 1405 1393 1384 1392 1387 1398 1395 1401 1404 1414 1399
1436 1438 1439 1441 1445 1447 1448 1448 1450 1449 1446 1444 1442 1446 1446 1449 1455 1455 1456 1453 1454 1451 1448 1446 1444 1442 1440 1442 1442 1441 1445 1437 1437 1423 1408 1418 1412 1405 1395 1387 1400 1396 1394 1397
1437 1439 1441 1443 1446 1448 1449 1450 1450 1446 1448 1445 1445 1449 1450 1449 1454 1456 1455 1457 1457 1455 1451 1448 1445 1441 1441 1440 1438 1437 1438 1437 1430 1424 1409 1410 1412 1414 1401 1400 1400 1393 1388 1387
1437 1439 1441 1444 1446 1448 1450 1450 1451 1447 1445 1448 1448 1454 1451 1448 1450 1455 1453 1459 1455 1451 1450 1449 1448 1444 1443 1440 1437 1436 1439 1432 1425 1418 1412 1407 1403 1393 1398 1403 1402 1397 1394 1381
1438 1441 1442 1444 1447 1449 1453 1454 1452 1449 1447 1450 1449 1449 1450 1453 1457 1457 1456 1455 1453 1453 1452 1450 1447 1446 1443 1441 1439 1437 1438 1442 1429 1416 1408 1405 1397 1380 1383 1387 1392 1383 1384 1397
1438 1440 1443 1446 1449 1452 1453 1454 1453 1451 1448 1445 1448 1451 1454 1456 1457 1457 1455 1454 1454 1455 1453 1450 1444 1437 1431 1428 1425 1427 1429 1432 1431 1422 1415 1416 1380 1370 1371 1378 1389 1399 1395 1398
1439 1442 1445 1448 1452 1453 1452 1455 1455 1453 1452 1445 1449 1455 1457 1457 1456 1456 1455 1454 1454 1454 1453 1446 1433 1423 1416 1409 1408 1412 1418 1423 1429 1422 1416 1405 1372 1370 1372 1375 1410 1406 1401 1402
1440 1444 1447 1450 1452 1453 1453 1455 1456 1456 1455 1452 1452 1455 1456 1454 1451 1452 1453 1454 1454 1455 1452 1448 1438 1428 1417 1411 1408 1400 1407 1413 1429 1424 1427 1398 1397 1388 1380 1378 1405 1414 1413 1417
1441 1444 1447 1450 1452 1454 1455 1457 1457 1458 1459 1456 1457 1458 1459 1457 1458 1455 1454 1455 1453 1452 1451 1447 1437 1427 1421 1416 1405 1401 1408 1419 1423 1422 1422 1402 1409 1399 1382 1386 1423 1422 1424 1426
1441 1445 1447 1450 1453 1455 1457 1459 1460 1460 1461 1459 1459 1460 1459 1459 1460 1458 1458 1456 1457 1453 1450 1444 1441 1441 1435 1417 1402 1401 1409 1412 1408 1408 1401 1402 1415 1399 1406 1427 1426 1427 1429 1429
1441 1444 1447 1450 1453 1455 1457 1459 1461 1461 1462 1461 1460 1460 1460 1461 1462 1462 1459 1459 1456 1459 1457 1451 1449 1442 1432 1426 1412 1408 1417 1415 1413 1421 1424 1429 1430 1430 1431 1429 1429 1430 1431 1432
1440 1444 1448 1450 1453 1456 1458 1459 1461 1462 1463 1459 1458 1457 1458 1459 1460 1461 1462 1458 1460 1461 1462 1461 1453 1445 1435 1429 1426 1424 1421 1418 1421 1425 1433 1435 1435 1434 1433 1433 1433 1435 1435 1436
1441 1444 1448 1451 1454 1456 1458 1460 1461 1464 1464 1462 1457 1457 1457 1458 1458 1459 1460 1461 1461 1462 1460 1458 1455 1450 1440 1433 1431 1430 1436 1431 1432 1435 1437 1438 1439 1439 1439 1439 1439 1439 1440 1440
1440 1444 1448 1451 1453 1456 1458 1460 1461 1463 1467 1463 1459 1457 1456 1456 1456 1457 1458 1459 1460 1460 1459 1457 1453 1446 1444 1434 1431 1439 1445 1446 1443 1440 1445 1444 1446 1444 1442 1442 1443 1444 1444 1443
1441 1444 1448 1450 1453 1456 1458 1460 1460 1462 1464 1465 1460 1454 1452 1453 1454 1455 1456 1457 1459 1460 1460 1457 1450 1444 1445 1435 1437 1450 1450 1448 1448 1448 1448 1446 1447 1447 1446 1446 1447 1447 1447 1447
1441 1445 1448 1450 1453 1456 1459 1460 1459 1459 1462 1465 1460 1450 1448 1450 1451 1453 1454 1455 1456 1459 1457 1450 1446 1442 1442 1436 1439 1452 1452 1451 1451 1450 1449 1449 1450 1450 1451 1451 1450 1451 1452 1452
1440 1444 1447 1450 1452 1455 1457 1458 1459 1461 1464 1464 1460 1450 1448 1447 1448 1450 1452 1453 1455 1455 1452 1446 1441 1439 1437 1437 1449 1452 1453 1453 1452 1451 1451 1450 1451 1453 1454 1452 1453 1454 1455 1455
1441 1444 1447 1450 1452 1453 1454 1457 1459 1460 1466 1460 1455 1448 1444 1446 1446 1447 1449 1450 1450 1446 1445 1441 1439 1436 1437 1446 1449 1451 1451 1451 1452 1452 1453 1454 1455 1456 1455 1455 1456 1456 1457 1457
1440 1444 1448 1448 1447 1451 1453 1456 1457 1458 1457 1456 1449 1445 1443 1445 1445 1446 1446 1446 1443 1438 1436 1435 1436 1436 1447 1449 1451 1452 1452 1453 1454 1454 1455 1456 1456 1457 1457 1458 1458 1458 1458 1459
1440 1443 1443 1444 1447 1450 1452 1452 1453 1452 1448 1444 1440 1441 1441 1442 1444 1443 1442 1440 1437 1434 1430 1431 1429 1435 1447 1451 1452 1453 1454 1455 1455 1455 1456 1457 1457 1457 1459 1459 1459 1459 1459 1459
1438 1440 1442 1445 1446 1446 1446 1445 1443 1441 1436 1431 1434 1436 1437 1440 1440 1441 1440 1436 1434 1429 1430 1429 1424 1445 1449 1451 1453 1454 1455 1455 1456 1457 1457 1457 1457 1458 1458 1458 1459 1459 1459 1460
1439 1439 1441 1441 1441 1440 1439 1438 1436 1434 1430 1432 1433 1436 1436 1439 1439 1440 1438 1436 1432 1431 1428 1426 1439 1447 1450 1452 1454 1456 1457 1457 1457 1457 1457 1458 1458 1458 1458 1459 1460 1460 1461 1461
1434 1434 1435 1434 1434 1431 1427 1426 1426 1431 1431 1432 1435 1437 1439 1439 1440 1440 1440 1433 1432 1424 1419 1427 1441 1448 1451 1453 1455 1455 1457 1457 1457 1457 1457 1458 1458 1459 1460 1461 1461 1462 1462 1463
1429 1428 1425 1427 1427 1428 1429 1430 1431 1432 1432 1434 1437 1438 1439 1438 1440 1438 1435 1431 1422 1419 1426 1440 1446 1449 1451 1453 1454 1456 1457 1457 1458 1459 1460 1460 1461 1462 1462 1463 1464 1464 1464 1464
1427 1427 1427 1427 1427 1428 1430 1430 1431 1433 1433 1435 1437 1435 1435 1434 1431 1433 1430 1423 1418 1434 1442 1445 1448 1450 1452 1453 1455 1457 1459 1460 1461 1461 1462 1463 1464 1464 1465 1465 1465 1465 1465 1465
1428 1427 1427 1427 1426 1426 1428 1430 1431 1433 1434 1434 1434 1429 1427 1431 1428 1426 1425 1429 1437 1442 1444 1446 1448 1451 1452 1454 1456 1458 1460 1462 1463 1464 1465 1465 1466 1466 1467 1467 1467 1467 1466 1466